Cortland County-chase Field, NY

6:14 PM EDT on April 28, 2017 (GMT -0400)
Cortland County-chase Field

Weather History for KN03 - January, 2014

Change the Weather History Date:

Sunday, January 19, 2014

  Actual Average (KITH) Record (KITH)
Temperature  
Mean Temperature 24 °F -  
Max Temperature 32 °F 28 °F 63 °F (1933)
Min Temperature 17 °F 13 °F -20 °F (1976)
Degree Days  
Heating Degree Days 40    
Moisture  
Dew Point 17 °F    
Average Humidity 75    
Maximum Humidity 86    
Minimum Humidity 64    
Precipitation  
Precipitation 0.00 in - - ()
Sea Level Pressure  
Sea Level Pressure 29.61 in    
Wind  
Wind Speed 6 mph (SW)    
Max Wind Speed 18 mph    
Max Gust Speed 26 mph    
Visibility 8 miles    
Events Snow    
Averages and records for this station are not official NWS values.
T = Trace of Precipitation, MM = Missing Value Source: NWS Daily Summary

Daily Weather History Graph

Daily Weather History Graph

Search for Another Location

Airport or City:

Trip Planner

Search our weather history database for the weather conditions in past years. The results will help you decide how hot, cold, wet, or windy it might be!

Date:

Astronomy

Jan. 19, 2014 Rise Set
Actual Time 7:29 AM EST 5:01 PM EST
Civil Twilight 6:59 AM EST 5:32 PM EST
Nautical Twilight 6:24 AM EST 6:07 PM EST
Astronomical Twilight 5:50 AM EST 6:40 PM EST
Moon 8:43 PM EST (1/19) 8:53 AM EST (1/19)
Length of Visible Light 10h 33m
Length of Day
9h 31m
Waning Gibbous, 89% of the Moon is Illuminated
Jan 19
Waning Gibbous
Jan 24
Last Quarter
Jan 30
New
Feb 6
First Quarter
Feb 14
Full

Hourly Weather History & Observations

Time (EST) Temp. Windchill Dew Point Humidity Pressure Visibility Wind Dir Wind Speed Gust Speed Precip Events Conditions
12:15 AM 19.4 °F 14.3 °F 15.8 °F 86% 29.81 in 10.0 mi WSW 3.5 mph - N/A   Overcast
12:35 AM 19.4 °F 12.8 °F 14.0 °F 80% 29.80 in 10.0 mi SW 4.6 mph - N/A   Overcast
12:55 AM 19.4 °F 12.8 °F 14.0 °F 80% 29.80 in 10.0 mi SW 4.6 mph - N/A   Overcast
1:15 AM 19.4 °F - 14.0 °F 80% 29.79 in 10.0 mi Calm Calm - N/A   Overcast
1:35 AM 19.4 °F 12.8 °F 14.0 °F 80% 29.79 in 10.0 mi WSW 4.6 mph - N/A   Overcast
1:55 AM 19.4 °F - 14.0 °F 80% 29.78 in 10.0 mi Calm Calm - N/A   Overcast
2:15 AM 19.4 °F - 14.0 °F 80% 29.77 in 10.0 mi Calm Calm - N/A   Overcast
2:35 AM 19.4 °F 14.3 °F 14.0 °F 80% 29.77 in 10.0 mi WSW 3.5 mph - N/A   Overcast
2:55 AM 19.4 °F 14.3 °F 14.0 °F 80% 29.77 in 10.0 mi WSW 3.5 mph - N/A   Overcast
3:15 AM 19.4 °F 12.8 °F 14.0 °F 80% 29.77 in 10.0 mi WSW 4.6 mph - N/A   Overcast
3:35 AM 19.4 °F 12.8 °F 14.0 °F 80% 29.77 in 10.0 mi SW 4.6 mph - N/A   Overcast
3:55 AM 17.6 °F 9.3 °F 14.0 °F 86% 29.76 in 10.0 mi SW 5.8 mph - N/A   Overcast
4:15 AM 17.6 °F 9.3 °F 14.0 °F 86% 29.76 in 10.0 mi SSW 5.8 mph - N/A   Overcast
4:35 AM 17.6 °F 10.7 °F 14.0 °F 86% 29.75 in 7.0 mi SSW 4.6 mph - N/A Snow Light Snow
4:55 AM 17.6 °F 10.7 °F 14.0 °F 86% 29.74 in 2.5 mi SW 4.6 mph - N/A Snow Light Snow
5:15 AM 17.6 °F - 14.0 °F 86% 29.72 in 4.0 mi Calm Calm - N/A Snow Light Snow
5:35 AM 17.6 °F - 14.0 °F 86% 29.71 in 5.0 mi Calm Calm - N/A Snow Light Snow
5:55 AM 17.6 °F 12.3 °F 14.0 °F 86% 29.69 in 4.0 mi South 3.5 mph - N/A Snow Light Snow
6:15 AM 17.6 °F - 14.0 °F 86% 29.69 in 5.0 mi Calm Calm - N/A Snow Light Snow
6:35 AM 17.6 °F 10.7 °F 14.0 °F 86% 29.68 in 7.0 mi South 4.6 mph - N/A   Overcast
6:55 AM 17.6 °F 8.2 °F 14.0 °F 86% 29.69 in 5.0 mi SW 6.9 mph - N/A Snow Light Snow
7:15 AM 17.6 °F 10.7 °F 14.0 °F 86% 29.68 in 2.0 mi SSW 4.6 mph - N/A Snow Light Snow
7:35 AM 17.6 °F 9.3 °F 14.0 °F 86% 29.68 in 1.2 mi SSW 5.8 mph - N/A Snow Light Snow
7:55 AM 17.6 °F 9.3 °F 14.0 °F 86% 29.68 in 1.2 mi SSW 5.8 mph - N/A Snow Light Snow
8:15 AM 17.6 °F 9.3 °F 14.0 °F 86% 29.67 in 1.8 mi SSW 5.8 mph - N/A Snow Light Snow
8:35 AM 17.6 °F 10.7 °F 14.0 °F 86% 29.67 in 3.0 mi SSW 4.6 mph - N/A Snow Light Snow
8:55 AM 17.6 °F 8.2 °F 14.0 °F 86% 29.66 in 7.0 mi SSW 6.9 mph - N/A Snow Light Snow
9:15 AM 17.6 °F 7.3 °F 14.0 °F 86% 29.66 in 10.0 mi SSW 8.1 mph - N/A   Overcast
9:35 AM 19.4 °F 10.4 °F 14.0 °F 80% 29.66 in 10.0 mi SW 6.9 mph - N/A   Overcast
9:55 AM 19.4 °F 9.5 °F 14.0 °F 80% 29.65 in 7.0 mi SW 8.1 mph - N/A Snow Light Snow
10:15 AM 19.4 °F 7.2 °F 14.0 °F 80% 29.63 in 10.0 mi SSW 11.5 mph - N/A   Scattered Clouds
10:35 AM 21.2 °F 10.1 °F 14.0 °F 74% 29.63 in 10.0 mi SW 10.4 mph 17.3 mph N/A   Clear
10:55 AM 21.2 °F 11.7 °F 14.0 °F 74% 29.62 in 10.0 mi SSW 8.1 mph - N/A   Scattered Clouds
11:15 AM 23.0 °F 11.7 °F 15.8 °F 74% 29.59 in 10.0 mi SW 11.5 mph - N/A   Scattered Clouds
11:35 AM 23.0 °F 10.6 °F 17.6 °F 80% 29.56 in 10.0 mi SSW 13.8 mph - N/A   Clear
11:55 AM 24.8 °F 13.4 °F 17.6 °F 74% 29.56 in 5.0 mi SW 12.7 mph 18.4 mph N/A   Haze
12:15 PM 26.6 °F 15.2 °F 17.6 °F 69% 29.54 in 5.0 mi SW 13.8 mph 20.7 mph N/A Snow Light Snow
12:35 PM 26.6 °F 16.8 °F 17.6 °F 69% 29.53 in 10.0 mi WSW 10.4 mph 18.4 mph N/A   Mostly Cloudy
12:55 PM 28.4 °F 17.0 °F 17.6 °F 64% 29.52 in 10.0 mi SW 15.0 mph 19.6 mph N/A   Overcast
1:15 PM 28.4 °F 17.5 °F 17.6 °F 64% 29.51 in 10.0 mi SW 13.8 mph 25.3 mph N/A   Mostly Cloudy
1:35 PM 28.4 °F 18.0 °F 17.6 °F 64% 29.51 in 10.0 mi SW 12.7 mph 23.0 mph N/A   Mostly Cloudy
1:55 PM 28.4 °F 16.6 °F 19.4 °F 69% 29.49 in 10.0 mi SW 16.1 mph 24.2 mph N/A   Overcast
2:15 PM 28.4 °F 17.5 °F 19.4 °F 69% 29.49 in 10.0 mi SSW 13.8 mph 26.5 mph N/A   Overcast
2:35 PM 28.4 °F 18.0 °F 19.4 °F 69% 29.49 in 10.0 mi SW 12.7 mph 21.9 mph N/A   Overcast
2:55 PM 28.4 °F 18.0 °F 19.4 °F 69% 29.49 in 10.0 mi SW 12.7 mph - N/A   Overcast
3:15 PM 30.2 °F 19.3 °F 19.4 °F 64% 29.49 in 10.0 mi SW 15.0 mph 23.0 mph N/A   Overcast
3:35 PM 30.2 °F 18.1 °F 19.4 °F 64% 29.48 in 10.0 mi SW 18.4 mph 23.0 mph N/A Snow Light Snow
3:55 PM 28.4 °F 17.0 °F 19.4 °F 69% 29.48 in 7.0 mi SW 15.0 mph 25.3 mph N/A Snow Light Snow
4:15 PM 28.4 °F 15.8 °F 19.4 °F 69% 29.48 in 5.0 mi SW 18.4 mph 23.0 mph N/A Snow Light Snow
4:35 PM 28.4 °F 17.0 °F 19.4 °F 69% 29.48 in 7.0 mi SW 15.0 mph 21.9 mph N/A Snow Light Snow
4:55 PM 30.2 °F 20.2 °F 19.4 °F 64% 29.50 in 7.0 mi SW 12.7 mph 18.4 mph N/A Snow Light Snow
5:15 PM 30.2 °F 21.3 °F 19.4 °F 64% 29.50 in 10.0 mi SW 10.4 mph 16.1 mph N/A Snow Light Snow
5:35 PM 30.2 °F 20.8 °F 19.4 °F 64% 29.51 in 10.0 mi SW 11.5 mph 18.4 mph N/A   Overcast
5:55 PM 30.2 °F 21.3 °F 19.4 °F 64% 29.52 in 10.0 mi SW 10.4 mph - N/A   Overcast
6:15 PM 30.2 °F 20.8 °F 19.4 °F 64% 29.52 in 10.0 mi SW 11.5 mph 17.3 mph N/A   Overcast
6:35 PM 30.2 °F 20.8 °F 19.4 °F 64% 29.53 in 10.0 mi SW 11.5 mph 16.1 mph N/A   Overcast
6:55 PM 30.2 °F 21.9 °F 21.2 °F 69% 29.52 in 10.0 mi SW 9.2 mph - N/A   Overcast
7:15 PM 30.2 °F 21.3 °F 21.2 °F 69% 29.53 in 10.0 mi SW 10.4 mph - N/A   Overcast
7:55 PM 32.0 °F 24.8 °F 21.2 °F 64% 29.53 in 10.0 mi SW 8.1 mph - N/A   Overcast
8:15 PM 32.0 °F 22.5 °F 21.2 °F 64% 29.53 in 10.0 mi WSW 12.7 mph 18.4 mph N/A   Overcast
8:35 PM 32.0 °F 24.8 °F 21.2 °F 64% 29.53 in 10.0 mi SW 8.1 mph 16.1 mph N/A   Overcast
8:55 PM 32.0 °F 24.2 °F 21.2 °F 64% 29.54 in 10.0 mi WSW 9.2 mph 16.1 mph N/A   Overcast
9:15 PM 32.0 °F 24.2 °F 21.2 °F 64% 29.53 in 10.0 mi WSW 9.2 mph - N/A   Overcast
9:35 PM 32.0 °F 27.5 °F 23.0 °F 69% 29.53 in 10.0 mi WSW 4.6 mph - N/A   Overcast
9:55 PM 32.0 °F 25.6 °F 23.0 °F 69% 29.53 in 10.0 mi WSW 6.9 mph - N/A   Overcast
10:15 PM 32.0 °F 27.5 °F 23.0 °F 69% 29.54 in 10.0 mi WSW 4.6 mph - N/A   Overcast
10:35 PM 32.0 °F 24.2 °F 23.0 °F 69% 29.54 in 10.0 mi WSW 9.2 mph - N/A   Overcast
10:55 PM 32.0 °F 26.4 °F 23.0 °F 69% 29.53 in 10.0 mi WSW 5.8 mph - N/A   Overcast
11:15 PM 32.0 °F 27.5 °F 23.0 °F 69% 29.53 in 10.0 mi WSW 4.6 mph - N/A   Overcast
11:35 PM 32.0 °F 25.6 °F 23.0 °F 69% 29.53 in 10.0 mi SW 6.9 mph - N/A   Overcast
11:55 PM 32.0 °F 26.4 °F 23.0 °F 69% 29.52 in 10.0 mi SW 5.8 mph - N/A   Overcast